This is the latest recevied weather packets stored in our database for station/object WP4PW. If no packets are shown the sender has not sent any weather packets the latest 1 day(s).
| Time | Temp. | Humidity | Pressure | Rain* | Wind** | Luminosity | Snow |
|---|---|---|---|---|---|---|---|
| 1778030722 | 26.67° C | 90% | 1022.1 hPa | 0 mm | 0.45 m/s, 102° | 0 W/m² | - |
| 1778030420 | 26.67° C | 90% | 1022 hPa | 0 mm | 1.34 m/s, 104° | 0 W/m² | - |
| 1778030128 | 26.67° C | 90% | 1022 hPa | 0 mm | 0.89 m/s, 115° | 0 W/m² | - |
| 1778029814 | 26.67° C | 90% | 1022.1 hPa | 0 mm | 2.24 m/s, 110° | 0 W/m² | - |
| 1778029513 | 26.67° C | 91% | 1022 hPa | 0 mm | 0.89 m/s, 119° | 0 W/m² | - |
| 1778029209 | 26.67° C | 92% | 1021.8 hPa | 0 mm | 1.34 m/s, 119° | 0 W/m² | - |
| 1778028907 | 26.67° C | 92% | 1021.8 hPa | 0 mm | 0.45 m/s, 108° | 0 W/m² | - |
| 1778028602 | 26.67° C | 92% | 1022 hPa | 0 mm | 0 m/s | 0 W/m² | - |
| 1778028300 | 26.67° C | 91% | 1021.9 hPa | 0 mm | 0.89 m/s, 130° | 0 W/m² | - |
| 1778027995 | 27.22° C | 89% | 1021.7 hPa | 0 mm | 0 m/s | 0 W/m² | - |
| 1778027692 | 27.22° C | 88% | 1021.7 hPa | 0 mm | 0.45 m/s, 86° | 0 W/m² | - |
| 1778027388 | 27.22° C | 87% | 1021.6 hPa | 0 mm | 0 m/s | 0 W/m² | - |
| 1778027085 | 27.22° C | 86% | 1021.9 hPa | 0 mm | 0 m/s | 0 W/m² | - |
| 1778026780 | 27.22° C | 85% | 1021.8 hPa | 0 mm | 1.34 m/s, 158° | 0 W/m² | - |
| 1778026477 | 27.22° C | 85% | 1021.7 hPa | 0 mm | 0.89 m/s, 112° | 0 W/m² | - |
| 1778026175 | 27.22° C | 85% | 1021.7 hPa | 0 mm | 0.89 m/s, 158° | 0 W/m² | - |
| 1778025872 | 27.22° C | 85% | 1021.8 hPa | 0 mm | 0.45 m/s, 111° | 0 W/m² | - |
| 1778025569 | 27.22° C | 85% | 1021.7 hPa | 0 mm | 0.45 m/s, 151° | 0 W/m² | - |
| 1778025267 | 27.22° C | 85% | 1021.4 hPa | 0 mm | 1.34 m/s, 174° | 0 W/m² | - |
| 1778024964 | 27.22° C | 85% | 1021.5 hPa | 0 mm | 0.89 m/s, 164° | 0 W/m² | - |
| 1778024661 | 27.22° C | 85% | 1021.5 hPa | 0 mm | 0.45 m/s, 131° | 0 W/m² | - |
| 1778024357 | 27.22° C | 85% | 1021.5 hPa | 0 mm | 0.89 m/s, 164° | 0 W/m² | - |
| 1778024055 | 27.78° C | 85% | 1021.5 hPa | 0 mm | 0.45 m/s, 104° | 0 W/m² | - |
| 1778023753 | 27.78° C | 85% | 1021.5 hPa | 0 mm | 0.89 m/s, 120° | 0 W/m² | - |
| 1778023451 | 27.78° C | 84% | 1021.5 hPa | 0 mm | 0.89 m/s, 143° | 0 W/m² | - |
* Rain latest hour (hover to see other rain measurements)
** Current wind speed in m/s (hover to see current wind gust speed)